Location: Bailen
(14.1842°N, 120.7958°E)
Time: 18:14:19
(UTC+00:00)

USA 234 - Pass Details

Date: 12 January 2026
Orbit: 1102 x 1106 km, 123.0° (Epoch: 4 January)

Event Time Altitude Azimuth Distance (km) Brightness Sun altitude
Rises 20:06:55 0° 43° (NE) 3,915 6.5 -32.4°
Reaches altitude 10° 20:09:27 10° 47° (NE) 2,956 5.8 -31.8°
Maximum altitude 20:15:52 59° 126° (SE) 1,254 3.7 -30.3°
Drops below altitude 10° 20:22:15 10° 204° (SSW) 2,952 5.4 -28.8°
Sets 20:24:46 0° 208° (SSW) 3,908 6.0 -28.2°
